Weather History for Frenchville, ME

Change the Weather History Date:

Wednesday, May 15, 2013

  Actual Average Record
Temperature  
Mean Temperature 46 °F 50 °F  
Max Temperature 61 °F 61 °F 81 °F (2004)
Min Temperature 31 °F 40 °F 31 °F (2013)
Degree Days  
Heating Degree Days 19    
Month to date heating degree days 157  
Since 1 July heating degree days 8638  
Cooling Degree Days 0    
Month to date cooling degree days 4  
Year to date cooling degree days 4  
Moisture  
Dew Point 28 °F    
Average Humidity 49    
Maximum Humidity 82    
Minimum Humidity 23    
Precipitation  
Precipitation 0.01 in 0.09 in 0.34 in (2005)
Month to date precipitation 1.18 1.35  
Year to date precipitation 5.38 8.21  
Snow  
Snow 0.00 in - - ()
Month to date snowfall 0.0  
Since 1 July snowfall 0.0  
Snow Depth 0.00 in    
Sea Level Pressure  
Sea Level Pressure 29.79 in    
Wind  
Wind Speed 9 mph (SW)    
Max Wind Speed 17 mph    
Max Gust Speed 24 mph    
Visibility 10 miles    
Events Rain    
T = Trace of Precipitation, MM = Missing Value Source: NWS Daily Summary

Daily Weather History Graph

Daily Weather History Graph

Search for Another Location

Airport:

Trip Planner

Search our weather history database for the weather conditions in past years. The results will help you decide how hot, cold, wet, or windy it might be!

Date:

Astronomy

May. 15, 2013 Rise Set
Actual Time 4:56 AM EDT 8:03 PM EDT
Civil Twilight 4:20 AM EDT 8:39 PM EDT
Nautical Twilight 3:33 AM EDT 9:27 PM EDT
Astronomical Twilight 2:35 AM EDT 10:25 PM EDT
Moon 9:32 AM EDT (5/15) No Moon Set
Length of Visible Light 16h 19m
Length of Day
15h 06m
Waxing Crescent, 26% of the Moon is Illuminated
May 15
Waxing Crescent
May 18
First Quarter
May 25
Full
May 31
Last Quarter
Jun 8
New

Hourly Weather History & Observations

Time (EDT) Temp. Windchill Dew Point Humidity Pressure Visibility Wind Dir Wind Speed Gust Speed Precip Events Conditions
12:53 AM 36.0 °F 30.3 °F 27.0 °F 70% 29.93 in 10.0 mi NW 6.9 mph - N/A   Partly Cloudy
1:53 AM 36.0 °F 29.0 °F 27.0 °F 70% 29.92 in 10.0 mi NW 9.2 mph - N/A   Mostly Cloudy
2:53 AM 34.0 °F 28.0 °F 27.0 °F 75% 29.91 in 10.0 mi NW 6.9 mph - N/A   Clear
3:53 AM 32.0 °F 23.6 °F 27.0 °F 82% 29.90 in 10.0 mi West 10.4 mph - N/A   Clear
4:53 AM 33.1 °F 27.7 °F 27.0 °F 78% 29.88 in 10.0 mi WNW 5.8 mph - N/A   Clear
5:53 AM 34.0 °F 29.8 °F 27.0 °F 75% 29.87 in 10.0 mi NW 4.6 mph - N/A   Clear
6:53 AM 37.0 °F - 28.9 °F 73% 29.88 in 10.0 mi Calm Calm - N/A   Clear
7:53 AM 41.0 °F 37.1 °F 30.9 °F 67% 29.89 in 10.0 mi Variable 5.8 mph - N/A   Clear
8:53 AM 46.0 °F 40.6 °F 30.9 °F 56% 29.88 in 10.0 mi West 11.5 mph - N/A   Clear
9:53 AM 51.1 °F - 30.9 °F 46% 29.86 in 10.0 mi NW 9.2 mph - N/A   Clear
10:53 AM 53.1 °F - 30.0 °F 41% 29.85 in 10.0 mi WNW 12.7 mph 19.6 mph N/A   Clear
11:53 AM 54.0 °F - 28.0 °F 37% 29.82 in 10.0 mi Variable 4.6 mph 16.1 mph N/A   Clear
12:53 PM 57.0 °F - 28.0 °F 33% 29.80 in 10.0 mi SW 11.5 mph 17.3 mph N/A   Clear
1:53 PM 59.0 °F - 27.0 °F 29% 29.78 in 10.0 mi WSW 12.7 mph 16.1 mph N/A   Clear
2:53 PM 60.1 °F - 25.0 °F 26% 29.75 in 10.0 mi SSW 8.1 mph - N/A   Clear
3:53 PM 61.0 °F - 23.0 °F 23% 29.72 in 10.0 mi South 10.4 mph - N/A   Clear
4:53 PM 60.1 °F - 21.9 °F 23% 29.71 in 10.0 mi South 8.1 mph 17.3 mph N/A   Clear
5:53 PM 60.1 °F - 24.1 °F 25% 29.68 in 10.0 mi South 9.2 mph - N/A   Clear
6:53 PM 57.9 °F - 25.0 °F 28% 29.69 in 10.0 mi South 5.8 mph - N/A   Clear
7:53 PM 55.9 °F - 27.0 °F 33% 29.67 in 10.0 mi South 8.1 mph - N/A   Clear
8:53 PM 55.0 °F - 28.0 °F 35% 29.68 in 10.0 mi South 6.9 mph 16.1 mph N/A   Clear
9:53 PM 53.1 °F - 27.0 °F 37% 29.66 in 10.0 mi South 10.4 mph 19.6 mph N/A   Mostly Cloudy
10:53 PM 51.1 °F - 27.0 °F 39% 29.65 in 10.0 mi South 12.7 mph - N/A   Overcast
11:53 PM 46.9 °F - 36.0 °F 66% 29.64 in 10.0 mi South 16.1 mph 21.9 mph 0.00 in Rain Light Rain